• In United Kingdom
  • List of Countries
  • For 7 days
  • Water Temperature
  • Satellite Maps
  • Weather Map
  • Weather Widgets
  • user-avatar
    Login

    Hourly Weather Lemnos

    Today, 17 January, Wednesday

    Time Temperature Precipitation Wind Pressure Humidity
    00:00 +12°C° 0.1 mm 5 mps 756 mmHg 75%
    01:00 +12°C° 0.1 mm 5 mps 756 mmHg 73%
    02:00 +11°C° 0 mm 7 mps 755 mmHg 66%
    03:00 +11°C° 0 mm 6 mps 754 mmHg 68%
    04:00 +11°C° 0 mm 6 mps 754 mmHg 69%
    05:00 +12°C° 0 mm 5 mps 754 mmHg 70%
    06:00 +12°C° 0 mm 5 mps 754 mmHg 70%
    07:00 +12°C° 0 mm 5 mps 753 mmHg 70%
    08:00 +12°C° 0 mm 5 mps 753 mmHg 70%
    09:00 +13°C° 0 mm 6 mps 753 mmHg 68%
    10:00 +14°C° 0 mm 6 mps 753 mmHg 66%
    11:00 +14°C° 0 mm 6 mps 752 mmHg 65%
    12:00 +15°C° 0 mm 7 mps 751 mmHg 66%
    13:00 +15°C° 0 mm 8 mps 751 mmHg 67%
    14:00 +15°C° 0 mm 9 mps 750 mmHg 67%
    15:00 +14°C° 0 mm 10 mps 749 mmHg 69%
    16:00 +14°C° 0 mm 11 mps 748 mmHg 70%
    17:00 +14°C° 0 mm 11 mps 747 mmHg 72%
    18:00 +14°C° 0 mm 12 mps 746 mmHg 70%
    19:00 +14°C° 0 mm 13 mps 746 mmHg 69%
    20:00 +14°C° 0 mm 14 mps 745 mmHg 67%
    21:00 +14°C° 0.2 mm 14 mps 744 mmHg 65%
    22:00 +14°C° 0.2 mm 14 mps 744 mmHg 62%
    23:00 +14°C° 0.2 mm 15 mps 744 mmHg 59%

    Tomorrow, 18 January, Thursday

    Time Temperature Precipitation Wind Pressure Humidity
    00:00 +13°C° 0.7 mm 14 mps 744 mmHg 56%
    01:00 +12°C° 0.7 mm 14 mps 744 mmHg 52%
    02:00 +10°C° 0.7 mm 14 mps 744 mmHg 48%
    03:00 +9°C° 0 mm 14 mps 745 mmHg 50%
    04:00 +8°C° 0 mm 15 mps 746 mmHg 52%
    05:00 +5°C° 0 mm 16 mps 746 mmHg 54%
    06:00 +5°C° 0.1 mm 15 mps 747 mmHg 52%
    07:00 +4°C° 0.1 mm 15 mps 748 mmHg 50%
    08:00 +4°C° 0.1 mm 15 mps 750 mmHg 48%
    09:00 +4°C° 0.1 mm 15 mps 751 mmHg 47%
    10:00 +5°C° 0.1 mm 15 mps 752 mmHg 45%
    11:00 +5°C° 0.1 mm 16 mps 753 mmHg 44%
    12:00 +5°C° 0 mm 15 mps 753 mmHg 42%
    13:00 +6°C° 0 mm 15 mps 754 mmHg 41%
    14:00 +8°C° 0 mm 14 mps 754 mmHg 39%
    15:00 +8°C° 0 mm 13 mps 755 mmHg 39%
    16:00 +7°C° 0 mm 12 mps 756 mmHg 38%
    17:00 +7°C° 0 mm 12 mps 757 mmHg 38%
    18:00 +7°C° 0 mm 11 mps 758 mmHg 39%
    19:00 +7°C° 0 mm 11 mps 758 mmHg 40%
    20:00 +7°C° 0 mm 10 mps 759 mmHg 41%
    21:00 +7°C° 0 mm 9 mps 759 mmHg 39%
    22:00 +7°C° 0 mm 8 mps 760 mmHg 38%
    23:00 +8°C° 0 mm 7 mps 760 mmHg 36%

    Day after tomorrow, 19 January, Friday

    Time Temperature Precipitation Wind Pressure Humidity
    00:00 +9°C° 0 mm 6 mps 760 mmHg 37%
    01:00 +9°C° 0 mm 6 mps 760 mmHg 38%
    02:00 +9°C° 0 mm 5 mps 760 mmHg 40%
    03:00 +9°C° 0 mm 5 mps 759 mmHg 42%
    04:00 +9°C° 0 mm 5 mps 759 mmHg 44%
    05:00 +9°C° 0 mm 5 mps 759 mmHg 46%
    06:00 +9°C° 0 mm 5 mps 759 mmHg 47%
    07:00 +9°C° 0 mm 6 mps 759 mmHg 48%
    08:00 +9°C° 0 mm 6 mps 759 mmHg 49%
    09:00 +10°C° 0 mm 7 mps 759 mmHg 47%
    10:00 +10°C° 0 mm 7 mps 759 mmHg 46%
    11:00 +11°C° 0 mm 7 mps 759 mmHg 45%
    12:00 +11°C° 0 mm 7 mps 759 mmHg 44%
    13:00 +12°C° 0 mm 7 mps 758 mmHg 44%
    14:00 +13°C° 0 mm 6 mps 758 mmHg 44%
    15:00 +13°C° 0 mm 6 mps 758 mmHg 48%
    16:00 +13°C° 0 mm 6 mps 757 mmHg 53%
    17:00 +13°C° 0 mm 6 mps 757 mmHg 57%
    18:00 +13°C° 0 mm 6 mps 757 mmHg 61%
    19:00 +13°C° 0 mm 6 mps 758 mmHg 66%
    20:00 +13°C° 0 mm 6 mps 758 mmHg 70%
    21:00 +12°C° 0 mm 7 mps 758 mmHg 72%
    22:00 +12°C° 0 mm 7 mps 757 mmHg 73%
    23:00 +12°C° 0 mm 7 mps 757 mmHg 75%

    20 January, Saturday

    Time Temperature Precipitation Wind Pressure Humidity
    00:00 +12°C° 0 mm 7 mps 757 mmHg 75%
    01:00 +12°C° 0 mm 7 mps 757 mmHg 75%
    02:00 +12°C° 0 mm 7 mps 757 mmHg 75%
    03:00 +13°C° 0 mm 6 mps 757 mmHg 75%
    04:00 +13°C° 0 mm 6 mps 757 mmHg 74%
    05:00 +13°C° 0 mm 6 mps 756 mmHg 74%
    06:00 +13°C° 0 mm 6 mps 756 mmHg 74%
    07:00 +13°C° 0 mm 6 mps 756 mmHg 74%
    08:00 +13°C° 0 mm 6 mps 756 mmHg 74%
    09:00 +14°C° 0 mm 7 mps 756 mmHg 71%
    10:00 +15°C° 0 mm 7 mps 756 mmHg 68%
    11:00 +15°C° 0 mm 7 mps 756 mmHg 66%
    12:00 +15°C° 0 mm 7 mps 755 mmHg 66%
    13:00 +15°C° 0 mm 8 mps 755 mmHg 67%
    14:00 +15°C° 0 mm 8 mps 754 mmHg 67%
    15:00 +15°C° 0 mm 8 mps 754 mmHg 68%
    16:00 +15°C° 0 mm 8 mps 753 mmHg 68%
    17:00 +15°C° 0 mm 8 mps 753 mmHg 69%
    18:00 +15°C° 0.1 mm 9 mps 753 mmHg 69%
    19:00 +14°C° 0.1 mm 10 mps 753 mmHg 69%
    20:00 +14°C° 0.1 mm 10 mps 753 mmHg 69%
    21:00 +14°C° 0.2 mm 11 mps 753 mmHg 69%
    22:00 +14°C° 0.2 mm 11 mps 753 mmHg 70%
    23:00 +14°C° 0.2 mm 11 mps 753 mmHg 70%

    21 January, Sunday

    Time Temperature Precipitation Wind Pressure Humidity
    00:00 +13°C° 0.2 mm 11 mps 753 mmHg 71%
    01:00 +13°C° 0.2 mm 11 mps 753 mmHg 73%
    02:00 +13°C° 0.2 mm 10 mps 753 mmHg 74%
    03:00 +13°C° 0.4 mm 9 mps 753 mmHg 75%
    04:00 +12°C° 0.4 mm 9 mps 753 mmHg 76%
    05:00 +12°C° 0.4 mm 8 mps 753 mmHg 77%
    06:00 +12°C° 0.5 mm 7 mps 754 mmHg 74%
    07:00 +11°C° 0.5 mm 6 mps 754 mmHg 71%
    08:00 +11°C° 0.5 mm 6 mps 754 mmHg 68%
    09:00 +11°C° 0.6 mm 6 mps 754 mmHg 67%
    10:00 +11°C° 0.6 mm 7 mps 754 mmHg 66%
    11:00 +11°C° 0.6 mm 7 mps 754 mmHg 65%
    12:00 +10°C° 1.3 mm 9 mps 754 mmHg 69%
    13:00 +9°C° 1.3 mm 10 mps 753 mmHg 73%
    14:00 +8°C° 1.3 mm 12 mps 753 mmHg 77%
    15:00 +7°C° 1.6 mm 13 mps 753 mmHg 77%
    16:00 +6°C° 1.6 mm 14 mps 753 mmHg 77%
    17:00 +5°C° 1.6 mm 15 mps 753 mmHg 78%
    18:00 +5°C° 1.3 mm 15 mps 753 mmHg 78%
    19:00 +5°C° 1.3 mm 16 mps 753 mmHg 78%
    20:00 +5°C° 1.3 mm 16 mps 753 mmHg 78%
    21:00 +3°C° 0.9 mm 17 mps 753 mmHg 77%
    22:00 +3°C° 0.9 mm 17 mps 753 mmHg 77%
    23:00 +3°C° 0.9 mm 17 mps 754 mmHg 77%

    22 January, Monday

    Time Temperature Precipitation Wind Pressure Humidity
    00:00 +3°C° 0.3 mm 17 mps 754 mmHg 74%
    01:00 +3°C° 0.3 mm 17 mps 754 mmHg 70%
    02:00 +3°C° 0.3 mm 17 mps 754 mmHg 67%
    03:00 +3°C° 0.2 mm 17 mps 754 mmHg 64%
    04:00 +4°C° 0.2 mm 16 mps 755 mmHg 61%
    05:00 +4°C° 0.2 mm 16 mps 755 mmHg 57%
    06:00 +4°C° 0.1 mm 16 mps 756 mmHg 56%
    07:00 +4°C° 0.1 mm 16 mps 756 mmHg 55%
    08:00 +4°C° 0.1 mm 15 mps 757 mmHg 54%
    09:00 +4°C° 0 mm 15 mps 758 mmHg 52%
    10:00 +4°C° 0 mm 15 mps 758 mmHg 50%
    11:00 +5°C° 0 mm 14 mps 759 mmHg 48%
    12:00 +5°C° 0 mm 14 mps 759 mmHg 46%
    13:00 +5°C° 0 mm 14 mps 759 mmHg 45%
    14:00 +5°C° 0 mm 13 mps 759 mmHg 43%
    15:00 +5°C° 0 mm 13 mps 760 mmHg 44%
    16:00 +5°C° 0 mm 13 mps 760 mmHg 44%
    17:00 +5°C° 0 mm 13 mps 761 mmHg 44%
    18:00 +5°C° 0 mm 13 mps 761 mmHg 46%
    19:00 +5°C° 0 mm 13 mps 762 mmHg 48%
    20:00 +4°C° 0 mm 13 mps 762 mmHg 50%
    21:00 +4°C° 0 mm 13 mps 763 mmHg 50%
    22:00 +4°C° 0 mm 12 mps 763 mmHg 51%
    23:00 +4°C° 0 mm 12 mps 763 mmHg 52%
    Show more